DM1MT Weather Reports


time (UTC)temp
C
wind
direction
speed
KPH
gust
KPH
rain 1hr
cm
rain 24hr
cm
rain mn
cm
humidity
%
barometer
mb
20260506132309 18 239 8.0 12.9 0.00 0.89 0.05 61 996.6
20260506131349 18 206 9.7 12.9 0.00 0.89 0.05 63 996.9
20260506130349 18 204 11.3 24.1 0.00 0.89 0.05 62 996.6
20260506125437 17 195 17.7 27.4 0.00 0.89 0.05 63 996.6
20260506124349 17 196 8.0 20.9 0.00 0.89 0.05 64 996.7
20260506123329 17 240 4.8 8.0 0.00 0.89 0.05 65 996.9
20260506122429 17 260 11.3 16.1 0.00 0.89 0.05 64 996.6
20260506121315 17 188 8.0 16.1 0.00 0.89 0.05 64 996.9
20260506120329 17 212 9.7 12.9 0.00 0.89 0.05 65 996.6
20260506115249 17 218 11.3 20.9 0.00 0.89 0.05 64 996.9
20260506114349 17 274 4.8 8.0 0.00 0.89 0.05 65 996.8
20260506113416 17 215 6.4 16.1 0.00 0.89 0.05 66 996.9
20260506112310 17 226 6.4 20.9 0.00 0.89 0.05 67 996.9
20260506111249 17 204 12.9 24.1 0.00 0.89 0.05 66 997.0
20260506110249 17 204 6.4 12.9 0.00 0.89 0.05 68 996.8
20260506105249 17 238 8.0 16.1 0.00 0.89 0.05 66 997.0
20260506104729 17 240 8.0 16.1 0.00 0.89 0.05 65 996.9
20260506103329 17 221 4.8 8.0 0.00 0.89 0.05 66 997.2
20260506102309 17 193 9.7 16.1 0.00 0.89 0.05 65 997.1
20260506101309 17 225 14.5 27.4 0.00 0.89 0.05 65 997.1
20260506100309 16 224 9.7 16.1 0.00 0.89 0.05 68 997.1
20260506095309 16 214 12.9 24.1 0.00 0.89 0.05 70 997.1
20260506094309 16 192 4.8 12.9 0.00 0.89 0.05 73 997.1
20260506093309 16 191 8.0 16.1 0.00 0.89 0.05 74 997.2
20260506092242 16 156 4.8 12.9 0.00 0.89 0.05 74 997.2
20260506091709 16 201 8.0 16.1 0.00 0.89 0.05 73 997.2
20260506090329 16 237 11.3 20.9 0.00 0.89 0.05 72 997.0
20260506084829 16 230 8.0 20.9 0.00 0.89 0.05 71 997.0
20260506083809 16 245 11.3 16.1 0.00 0.89 0.05 72 996.9
20260506082829 16 205 11.3 24.1 0.00 0.89 0.05 71 996.8
20260506081809 15 224 8.0 20.9 0.00 0.89 0.05 75 996.8
20260506081309 15 218 12.9 24.1 0.00 0.89 0.05 78 997.0
20260506072749 14 209 8.0 20.9 0.00 0.89 0.05 86 996.8
20260506071829 14 217 9.7 12.9 0.00 0.89 0.05 87 996.8
20260506070809 14 227 9.7 20.9 0.00 0.89 0.05 88 996.8
20260506061809 13 235 3.2 8.0 0.00 0.89 0.05 94 996.6
20260506060714 12 179 4.8 16.1 0.00 0.89 0.05 95 996.6
20260506050848 12 204 1.6 3.2 0.00 0.89 0.05 97 996.6
20260506044809 12 0.0 0.0 0.00 0.89 0.05 97 996.8
20260506043849 12 219 0.0 3.2 0.00 0.89 0.05 97 996.8
20260506042909 12 225 3.2 8.0 0.00 0.89 0.05 97 996.5
20260506041721 12 215 6.4 8.0 0.00 0.89 0.05 97 996.8
20260506040748 12 224 3.2 12.9 0.00 0.89 0.05 98 996.6
20260506035808 12 227 1.6 8.0 0.00 0.89 0.05 98 996.5
20260506034733 12 221 3.2 8.0 0.00 0.89 0.05 98 996.8
20260506033814 12 226 1.6 8.0 0.00 0.89 0.05 98 996.8
20260506032808 12 221 6.4 12.9 0.00 0.89 0.05 98 996.9
20260506031908 12 0.0 0.0 0.00 0.89 0.05 98 996.8
20260506030835 12 235 0.0 3.2 0.00 0.89 0.05 98 996.8
20260506025828 12 207 3.2 8.0 0.00 0.89 0.05 98 996.8
20260506024717 12 215 1.6 8.0 0.00 0.89 0.05 98 997.0
20260506024008 12 189 3.2 8.0 0.00 0.89 0.05 98 996.9
20260506022855 12 199 1.6 8.0 0.00 0.89 0.05 98 997.2
20260506021855 12 229 12.9 20.9 0.00 0.89 0.05 98 997.2
20260506020816 12 216 6.4 12.9 0.00 0.89 0.05 98 997.1
20260506015838 12 244 6.4 16.1 0.00 0.89 0.05 98 997.1
20260506014741 12 218 8.0 16.1 0.00 0.89 0.05 98 997.2
20260506013828 12 211 6.4 16.1 0.00 0.89 0.05 98 997.2
20260506012808 12 205 8.0 12.9 0.00 0.89 0.05 98 997.3
20260506011816 13 214 11.3 24.1 0.00 0.89 0.05 98 997.3
20260506010755 13 221 9.7 16.1 0.00 0.89 0.05 98 997.2
20260506005828 13 196 3.2 12.9 0.00 0.89 0.05 98 997.3
20260506004908 13 217 8.0 16.1 0.00 0.89 0.05 98 997.3
20260506003915 13 171 6.4 20.9 0.00 0.89 0.05 98 997.3
20260506002934 13 174 3.2 12.9 0.00 0.89 0.05 98 997.5
20260506001808 13 174 6.4 12.9 0.00 0.89 0.05 98 997.3
20260506000908 13 177 6.4 12.9 0.05 0.89 0.05 98 997.7
20260505235908 13 202 4.8 12.9 0.05 0.89 0.05 98 997.7
20260505234855 13 186 3.2 8.0 0.05 0.89 0.05 98 997.8
20260505233812 13 190 3.2 12.9 0.05 0.89 0.05 98 997.8
20260505232828 13 175 6.4 16.1 0.05 0.89 0.05 98 997.8
20260505231908 13 170 6.4 16.1 0.05 0.89 0.05 98 997.8
20260505230755 13 172 6.4 16.1 0.00 0.84 0.00 98 997.9
20260505225808 13 161 1.6 3.2 0.00 0.84 0.00 98 998.0
20260505225049 13 0.0 3.2 0.00 0.84 0.00 98 998.2
20260505223733 13 0.0 0.0 0.00 0.84 0.00 98 998.0
20260505222728 13 0.0 0.0 0.00 0.84 0.00 98 998.0
20260505221751 13 171 0.0 3.2 0.00 0.84 0.00 98 998.3
20260505220823 13 0.0 3.2 0.00 0.84 0.00 98 998.4
20260505215534 13 157 0.0 3.2 0.00 0.84 0.84 98 998.3
20260505214712 13 201 0.0 3.2 0.00 0.84 0.84 98 998.3
20260505213635 14 181 0.0 3.2 0.00 0.84 0.84 98 998.3
20260505212652 13 0.0 0.0 0.00 0.84 0.84 98 998.3
20260505211648 13 0.0 3.2 0.00 0.84 0.84 98 998.4
20260505210612 13 0.0 0.0 0.00 0.84 0.84 98 998.4
20260505205608 13 0.0 0.0 0.00 0.84 0.84 97 998.4
20260505204708 13 0.0 0.0 0.00 0.84 0.84 97 998.4
20260505203648 13 0.0 0.0 0.00 0.84 0.84 97 998.3
20260505202749 13 0.0 0.0 0.00 0.84 0.84 97 998.2
20260505201612 13 0.0 0.0 0.00 0.84 0.84 97 998.6
20260505200648 13 0.0 0.0 0.00 0.84 0.84 97 998.2
20260505195708 13 0.0 0.0 0.00 0.84 0.84 97 998.3
20260505194727 13 0.0 0.0 0.00 0.84 0.84 96 998.3
20260505193728 13 0.0 0.0 0.00 0.84 0.84 96 998.1
20260505192648 14 0.0 0.0 0.00 0.84 0.84 96 998.3
20260505191555 14 0.0 0.0 0.00 0.84 0.84 96 998.2
20260505190628 14 0.0 0.0 0.00 0.84 0.84 96 998.0
20260505185655 14 0.0 0.0 0.00 0.84 0.84 95 998.1
20260505184648 14 0.0 0.0 0.00 0.84 0.84 95 998.0
20260505183751 14 0.0 0.0 0.00 0.84 0.84 95 998.2
20260505182707 14 0.0 0.0 0.00 0.84 0.84 95 998.3
20260505181627 14 0.0 0.0 0.00 0.84 0.84 95 998.1
20260505180627 14 232 0.0 3.2 0.00 0.84 0.84 95 998.2
20260505175707 14 0.0 0.0 0.00 0.84 0.84 94 998.3
20260505174728 14 0.0 0.0 0.00 0.84 0.84 94 998.2
20260505173553 15 279 4.8 8.0 0.00 0.84 0.84 94 998.2
20260505172708 15 226 1.6 3.2 0.05 0.84 0.84 94 998.5
20260505171635 15 230 3.2 8.0 0.05 0.84 0.84 94 998.2
20260505170747 15 237 1.6 3.2 0.05 0.84 0.84 94 998.2
20260505165611 15 243 1.6 3.2 0.05 0.84 0.84 93 998.2
20260505164647 15 225 1.6 8.0 0.05 0.84 0.84 93 998.4
20260505163628 15 229 3.2 8.0 0.05 0.84 0.84 93 998.3
20260505162634 15 260 0.0 3.2 0.00 0.79 0.79 93 998.7
20260505161914 15 222 1.6 12.9 0.03 0.79 0.79 93 998.5
20260505160651 15 226 3.2 8.0 0.05 0.79 0.79 93 998.5
20260505152631 15 257 3.2 12.9 0.69 0.79 0.79 92 998.2
20260505151548 15 259 4.8 8.0 0.76 0.76 0.76 91 998.5
20260505150635 15 262 4.8 8.0 0.74 0.74 0.74 90 998.5
20260505140627 21 185 1.6 3.2 0.00 0.00 0.00 58 998.1